Regional Weather Roundup
Issued by NWS

Home | Current Version | Previous Version | Graphics & Text | Print | Product List | Glossary On
Versions: 1 2 3 4 5 6 7 8 9 10 11 12 13 14 15 16 17 18 19 20 21 22 23 24 25 26 27 28 29 30 31 32 33 34 35 36 37 38 39 40 41 42 43 44 45 46 47 48 49 50
000
ASUS43 KDMX 171601
RWRIA

WEATHER ROUNDUP FOR IOWA
NATIONAL WEATHER SERVICE DES MOINES IA
1000 AM CST FRI NOV 17 2017

NOTE: "FAIR" INDICATES FEW OR NO CLOUDS BELOW 12,000 FEET WITH NO
SIGNIFICANT WEATHER AND/OR OBSTRUCTIONS TO VISIBILITY.

* - THESE STATIONS ARE NOT NWS STATIONS...THUS NOT UNDER NWS
QUALITY CONTROL.  THEY ALSO DO NOT REPORT WEATHER SUCH
AS PRECIPITATION OR FOG.

IAZ001>003-012>014-020>022-031>034-043>046-171700-
   NORTHWEST IOWA

CITY           SKY/WX    TMP DP  RH WIND       PRES   REMARKS
CARROLL *      CLOUDY    48  43  81 S18       29.64F
CHEROKEE *     PTSUNNY   52  46  79 S17       29.59F
DENISON *      CLOUDY    50  46  87 S18G24    29.63F
LE MARS *      CLOUDY    54  45  71 S15       29.58S
ORANGE CITY *  CLOUDY    54  48  82 S15       29.57F
SHELDON *      CLOUDY    50  43  76 S12G20    29.57S
SIOUX CITY     PTSUNNY   52  43  71 S10       29.59F
SPENCER        CLOUDY    46  38  73 S18       29.59F
STORM LAKE *   CLOUDY    46  41  81 S15       29.61F
$$

IAZ055>058-069>071-079>083-090>094-171700-
   SOUTHWEST IOWA

CITY           SKY/WX    TMP DP  RH WIND       PRES   REMARKS
ATLANTIC *     CLOUDY    48  48 100 S12G20    29.65F FOG
AUDUBON *      CLOUDY    48  45  87 S9        29.66F FOG
CLARINDA *     CLOUDY    50  50 100 S7          N/A  FOG
COUNCIL BLFS * CLOUDY    52  52 100 SE8       29.62F FOG
CRESTON *      CLOUDY    46  45  93 SE14      29.70F FOG
HARLAN  *      CLOUDY    50  50 100 S9        29.67F
LAMONI         CLOUDY    49  44  83 SE10G20   29.71F
RED OAK *      CLOUDY    50  50 100 SE8G16    29.65F FOG
SHENANDOAH *   CLOUDY    52  50  93 SE10      29.65S FOG
$$

IAZ047>049-059>061-072>074-084-171700-
   CENTRAL IOWA

CITY           SKY/WX    TMP DP  RH WIND       PRES   REMARKS
AMES           CLOUDY    41  39  93 SE15G22   29.71F
ANKENY *       CLOUDY    45  39  81 SE13G21   29.73F
BOONE *        CLOUDY    43  39  87 S20       29.67F FOG
CHARITON *     CLOUDY    45  41  87 SE16      29.73F
DES MOINES     LGT RAIN  46  40  79 SE15      29.73F
GRINNELL*      CLOUDY    38  36  91 SE17      29.78F FOG     WCI  29
KNOXVILLE *    CLOUDY    45  39  81 SE14G26   29.73F
MARSHALLTOWN   CLOUDY    38  37  97 S18       29.73F FOG     WCI  28
NEWTON *       CLOUDY    41  37  87 SE20      29.75F FOG
PELLA *        CLOUDY    41  37  86 SE10      29.78F
PERRY *        CLOUDY    46  41  82 SE18G24   29.68F
$$

IAZ004>006-015-016-023>025-035-036-171700-
   NORTH CENTRAL IOWA

CITY           SKY/WX    TMP DP  RH WIND       PRES   REMARKS
ALGONA *       CLOUDY    41  39  93 S16G26    29.65S
CLARION *      CLOUDY    41  41 100 S20G29    29.67F FOG
ESTHERVILLE    CLOUDY    41  36  82 S20       29.61F
FORT DODGE *   CLOUDY    42  37  82 S13       29.65F
MASON CITY     LGT RAIN  36  34  92 SE17      29.71F FOG     WCI  26
FOREST CITY *  CLOUDY    39  37  93 SE10      29.69F FOG     WCI  32
WEBSTER CITY * CLOUDY    41  37  87 SE21G26   29.65F
IOWA FALLS *   CLOUDY    39  37  93 SE21      29.72F FOG     WCI  29
$$

IAZ007>011-017>019-026>030-037>042-050>054-066-171700-
   NORTHEAST IOWA

CITY           SKY/WX    TMP DP  RH WIND       PRES   REMARKS
CEDAR RAPIDS   CLOUDY    36  34  92 S17G29    29.81F FOG     WCI  26
CHARLES CITY * CLOUDY    36  36 100 SE14G20   29.75F FOG     WCI  27
CLINTON *      CLOUDY    36  33  89 SE18      29.90F WCI  26
DECORAH *      CLOUDY    36  34  93 S12G20    29.78S FOG     WCI  27
DUBUQUE        CLOUDY    34  31  88 S18       29.85F WCI  23
MONTICELLO *   CLOUDY    36  34  93 SE16G23   29.83F WCI  26
OELWEIN *      MIX PCPN  36  36 100 S16       29.79S VSB 1   WCI  26
WATERLOO       CLOUDY    36  33  89 S17G23    29.76S FOG     WCI  26
$$

IAZ064-065-067-068-078-171700-
   EAST CENTRAL IOWA

CITY           SKY/WX    TMP DP  RH WIND       PRES   REMARKS
DAVENPORT      CLOUDY    37  32  82 S16G22    29.90F WCI  28
IOWA CITY      CLOUDY    38  34  85 SE13      29.85F FOG     WCI  30
MT. PLEASANT * CLOUDY    38  34  84 SE16      29.86F FOG     WCI  29
MUSCATINE *    CLOUDY    39  34  81 SE13G18   29.87F WCI  32
QUAD CITIES    CLOUDY    38  32  79 SE10G23   29.89F WCI  31
$$

IAZ062-063-075>077-085>089-095>099-171700-
   SOUTHEAST IOWA

CITY           SKY/WX    TMP DP  RH WIND       PRES   REMARKS
BURLINGTON     CLOUDY    38  35  89 S12       29.89F FOG     WCI  30
FAIRFIELD *    CLOUDY    39  36  87 SE14      29.81F WCI  31
FORT MADISON * CLOUDY    37  36  93 SE14      29.88F FOG     WCI  29
KEOKUK *       CLOUDY    41  36  81 SE12G18   29.86F
OSKALOOSA *    CLOUDY    40  37  87 S17       29.79F FOG     WCI  31
OTTUMWA        CLOUDY    42  37  82 SE16      29.79F
WASHINGTON *   CLOUDY    39  39 100 SE17      29.83F WCI  30
$$

ABBREVIATIONS USED IN REMARKS
   TC - TEMPERATURES IN CELSIUS
  WCI - WIND CHILL INDEX
   HX - HEAT INDEX
  VSB - VISIBILITY
$$




USA.gov is the U.S. government's official web portal to all federal, state and local government web resources and services.